Flag for Switzerland Weather past 2 weeks in Grenchen, Solothurn, Switzerland

Now
61 °F

Cool.


Feels Like: 61 °F
Forecast: 45 / 67 °F
Wind: 14 mph from East

Location: Grenchen

Current Time: Oct 2, 2014 at 11:49:48 AM

Latest Report: Oct 2, 2014 at 11:00 AM


Visibility: N/A

Pressure: 30.35 "Hg

Humidity: 82%

Dew point: 56 °F

Location of GrenchenLocation

Historic Weather in Grenchen — Graph

°F

Grenchen temperature yesterday

Maximum temperature yesterday: 70 °F (at 5:00 PM)
Minimum temperature yesterday: 55 °F (at 11:00 PM)
Average temperature yesterday: 62 °F

Past Weeks' High & Low Weather Summary

 TemperatureHumidityPressure
High76 °F (Sep 17, 5:00 PM)100% (Sep 20, 6:00 AM)30.37 "Hg (Sep 20, 6:00 AM)
Low40 °F (Sep 24, 6:00 AM)44% (Sep 23, 5:00 PM)29.80 "Hg (Sep 17, 4:00 PM)
Average58 °F84%30.16 "Hg
* Reported Sep 17 10:00 AM — Oct 2 10:00 AM, Grenchen, Weather by CustomWeather, © 2014

Note: Actual official high and low records may vary slightly from our data, if they occured in-between our weather recording intervals... More about our weather records

Advertising

Grenchen weather history for previous 24 hours

 ConditionsComfort  
Time TempWeatherWind HumidityBarometerVisibility
10:00 AM
Oct 2
60 °FCool.9 mph96%30.36 "HgN/A
9:00 AM57 °FCool.7 mph100%30.36 "HgN/A
8:00 AM54 °FCool.3 mph100%30.36 "HgN/A
7:00 AM51 °FCool.2 mph100%30.37 "HgN/A
6:00 AM49 °FCool.1 mph100%30.37 "HgN/A
5:00 AM51 °FCool.1 mph100%30.37 "HgN/A
4:00 AM49 °FCool.1 mph99%30.37 "HgN/A
3:00 AM51 °FCool.1 mph98%30.37 "HgN/A
2:00 AM51 °FCool.1 mph99%30.37 "HgN/A
1:00 AM51 °FCool.2 mph96%30.37 "HgN/A
12:00 AM53 °FCool.2 mph96%30.36 "HgN/A
11:00 PM
Oct 1
55 °FCool.2 mph92%30.36 "HgN/A
10:00 PM58 °FCool.1 mph83%30.34 "HgN/A
9:00 PM58 °FCool.3 mph83%30.33 "HgN/A
8:00 PM64 °FMild.6 mph70%30.30 "HgN/A
7:00 PM66 °FMild.9 mph66%30.28 "HgN/A
6:00 PM70 °FMild.6 mph60%30.26 "HgN/A
5:00 PM70 °FMild.5 mph60%30.26 "HgN/A
4:00 PM69 °FMild.6 mph61%30.27 "HgN/A
3:00 PM69 °FMild.7 mph64%30.27 "HgN/A
2:00 PM69 °FMild.3 mph67%30.29 "HgN/A
1:00 PM66 °FMild.1 mph76%30.31 "HgN/A
12:00 PM64 °FMild.1 mph83%30.32 "HgN/A
11:00 AM62 °FCool.2 mph98%30.33 "HgN/A
Weather by CustomWeather, © 2014

See weather overviewHow to use our weather pages